Location: Lake Crest
(37.6062°N, 88.9176°W)
Time: 21:48:52
(UTC+00:00)

NOAA 11 - Pass Details

Date: 15 December 2019
Orbit: 833 x 849 km, 98.4° (Epoch: 26 January)

Event Time Altitude Azimuth Distance (km) Brightness Sun altitude
Rises 00:29:04 0° 158° (SSE) 3,378 7.3 -21.3°
Reaches altitude 10° 00:31:25 10° 156° (SSE) 2,450 6.5 -21.7°
Maximum altitude 00:36:48 68° 74° (ENE) 910 4.1 -22.8°
Drops below altitude 10° 00:42:15 10° 353° (N) 2,475 6.6 -23.8°
Sets 00:44:39 0° 351° (N) 3,417 7.3 -24.3°
